Time,TemperatureF,DewpointF,PressureIn,WindDirection,WindDirectionDegrees,WindSpeedMPH,WindSpeedGustMPH,Humidity,HourlyPrecipIn,Conditions,Clouds,dailyrainin,SoftwareType,DateUTC
2013-02-05 00:01:00,47.0,29.0,30.15,SE,126,0.0,0.0,50,0.00,,,0.00,,2013-02-05 08:01:00,
2013-02-05 00:11:00,47.0,29.0,30.15,SE,126,0.0,0.0,50,0.00,,,0.00,,2013-02-05 08:11:00,
2013-02-05 00:21:00,46.0,28.0,30.15,SE,126,0.0,0.0,50,0.00,,,0.00,,2013-02-05 08:21:00,
2013-02-05 00:31:00,46.0,28.0,30.15,SE,126,0.0,0.0,50,0.00,,,0.00,,2013-02-05 08:31:00,
2013-02-05 00:41:00,46.0,28.0,30.15,SE,126,0.0,0.0,50,0.00,,,0.00,,2013-02-05 08:41:00,
2013-02-05 00:52:00,45.0,27.0,30.15,SE,126,0.0,0.0,50,0.00,,,0.00,,2013-02-05 08:52:00,
2013-02-05 01:02:00,45.0,28.0,30.16,SE,126,0.0,3.0,52,0.00,,,0.00,,2013-02-05 09:02:00,
2013-02-05 01:11:00,44.0,28.0,30.16,SE,126,0.0,0.0,52,0.00,,,0.00,,2013-02-05 09:11:00,
2013-02-05 01:21:00,44.0,28.0,30.16,SE,126,0.0,0.0,52,0.00,,,0.00,,2013-02-05 09:21:00,
2013-02-05 01:31:00,44.0,28.0,30.16,SE,126,0.0,0.0,53,0.00,,,0.00,,2013-02-05 09:31:00,
2013-02-05 01:41:00,44.0,28.0,30.16,SE,126,0.0,0.0,53,0.00,,,0.00,,2013-02-05 09:41:00,
2013-02-05 01:52:00,44.0,28.0,30.15,SE,126,0.0,0.0,53,0.00,,,0.00,,2013-02-05 09:52:00,
2013-02-05 02:01:00,44.0,28.0,30.15,SE,126,0.0,0.0,52,0.00,,,0.00,,2013-02-05 10:01:00,
2013-02-05 02:11:00,44.0,28.0,30.15,SE,126,0.0,0.0,53,0.00,,,0.00,,2013-02-05 10:11:00,
2013-02-05 02:21:00,44.0,28.0,30.15,SE,126,0.0,0.0,53,0.00,,,0.00,,2013-02-05 10:21:00,
2013-02-05 02:31:00,43.0,28.0,30.15,SE,126,0.0,0.0,54,0.00,,,0.00,,2013-02-05 10:31:00,
2013-02-05 02:42:00,43.0,28.0,30.15,SE,126,0.0,0.0,54,0.00,,,0.00,,2013-02-05 10:42:00,
2013-02-05 02:52:00,43.0,27.0,30.14,SE,126,0.0,2.0,53,0.00,,,0.00,,2013-02-05 10:52:00,
2013-02-05 03:01:00,43.0,28.0,30.14,SE,126,0.0,2.0,54,0.00,,,0.00,,2013-02-05 11:01:00,
2013-02-05 03:11:00,43.0,28.0,30.14,SE,126,0.0,2.0,54,0.00,,,0.00,,2013-02-05 11:11:00,
2013-02-05 03:21:00,43.0,28.0,30.14,SE,126,0.0,0.0,55,0.00,,,0.00,,2013-02-05 11:21:00,
2013-02-05 03:31:00,42.0,27.0,30.14,SE,126,0.0,0.0,55,0.00,,,0.00,,2013-02-05 11:31:00,
2013-02-05 03:41:00,42.0,27.0,30.14,SE,126,0.0,0.0,55,0.00,,,0.00,,2013-02-05 11:41:00,
2013-02-05 03:52:00,42.0,27.0,30.14,SE,126,0.0,0.0,56,0.00,,,0.00,,2013-02-05 11:52:00,
2013-02-05 04:01:00,42.0,27.0,30.14,SE,126,0.0,0.0,56,0.00,,,0.00,,2013-02-05 12:01:00,
2013-02-05 04:12:00,42.0,27.0,30.14,SE,126,0.0,0.0,56,0.00,,,0.00,,2013-02-05 12:12:00,
2013-02-05 04:21:00,42.0,27.0,30.14,SE,126,0.0,0.0,56,0.00,,,0.00,,2013-02-05 12:21:00,
2013-02-05 04:31:00,41.0,27.0,30.15,SE,126,0.0,0.0,57,0.00,,,0.00,,2013-02-05 12:31:00,
2013-02-05 04:42:00,41.0,27.0,30.15,SE,126,0.0,0.0,57,0.00,,,0.00,,2013-02-05 12:42:00,
2013-02-05 04:52:00,41.0,26.0,30.15,SE,126,0.0,2.0,55,0.00,,,0.00,,2013-02-05 12:52:00,
2013-02-05 05:01:00,41.0,26.0,30.15,SE,126,0.0,2.0,55,0.00,,,0.00,,2013-02-05 13:01:00,
2013-02-05 05:11:00,41.0,26.0,30.15,SE,126,0.0,2.0,55,0.00,,,0.00,,2013-02-05 13:11:00,
2013-02-05 05:21:00,41.0,26.0,30.15,SE,126,0.0,2.0,55,0.00,,,0.00,,2013-02-05 13:21:00,
2013-02-05 05:31:00,42.0,26.0,30.15,SE,126,0.0,5.0,53,0.00,,,0.00,,2013-02-05 13:31:00,
2013-02-05 05:42:00,42.0,26.0,30.15,SE,126,0.0,5.0,53,0.00,,,0.00,,2013-02-05 13:42:00,
2013-02-05 05:52:00,42.0,26.0,30.15,SE,126,0.0,0.0,52,0.00,,,0.00,,2013-02-05 13:52:00,
2013-02-05 06:01:00,42.0,26.0,30.15,SE,126,0.0,0.0,52,0.00,,,0.00,,2013-02-05 14:01:00,
2013-02-05 06:12:00,42.0,26.0,30.15,SE,126,0.0,0.0,52,0.00,,,0.00,,2013-02-05 14:12:00,
2013-02-05 06:21:00,41.0,26.0,30.15,SE,126,0.0,0.0,54,0.00,,,0.00,,2013-02-05 14:21:00,
2013-02-05 06:31:00,41.0,26.0,30.15,SE,126,0.0,0.0,55,0.00,,,0.00,,2013-02-05 14:31:00,
2013-02-05 06:41:00,41.0,26.0,30.15,SE,126,0.0,0.0,55,0.00,,,0.00,,2013-02-05 14:41:00,
2013-02-05 06:52:00,41.0,26.0,30.15,SE,126,0.0,0.0,54,0.00,,,0.00,,2013-02-05 14:52:00,
2013-02-05 07:01:00,40.0,25.0,30.15,SE,126,0.0,0.0,55,0.00,,,0.00,,2013-02-05 15:01:00,
2013-02-05 07:11:00,40.0,25.0,30.15,SE,126,0.0,0.0,55,0.00,,,0.00,,2013-02-05 15:11:00,
2013-02-05 07:21:00,40.0,25.0,30.15,SE,126,0.0,0.0,54,0.00,,,0.00,,2013-02-05 15:21:00,
2013-02-05 07:32:00,40.0,26.0,30.16,SE,126,0.0,0.0,56,0.00,,,0.00,,2013-02-05 15:32:00,
2013-02-05 07:41:00,40.0,26.0,30.16,SE,126,0.0,0.0,56,0.00,,,0.00,,2013-02-05 15:41:00,
2013-02-05 07:52:00,41.0,27.0,30.16,SE,126,0.0,0.0,58,0.00,,,0.00,,2013-02-05 15:52:00,
2013-02-05 08:01:00,42.0,27.0,30.16,SE,126,0.0,0.0,56,0.00,,,0.00,,2013-02-05 16:01:00,
2013-02-05 08:11:00,42.0,27.0,30.16,SE,126,0.0,0.0,56,0.00,,,0.00,,2013-02-05 16:11:00,
2013-02-05 08:22:00,47.0,28.0,30.16,SE,126,0.0,0.0,48,0.00,,,0.00,,2013-02-05 16:22:00,
2013-02-05 08:32:00,49.0,28.0,30.17,SE,126,0.0,0.0,44,0.00,,,0.00,,2013-02-05 16:32:00,
2013-02-05 08:41:00,49.0,28.0,30.17,SE,126,0.0,0.0,44,0.00,,,0.00,,2013-02-05 16:41:00,
2013-02-05 08:52:00,52.0,28.0,30.17,SE,126,0.0,0.0,40,0.00,,,0.00,,2013-02-05 16:52:00,
2013-02-05 09:01:00,53.0,27.0,30.17,SE,126,0.0,0.0,36,0.00,,,0.00,,2013-02-05 17:01:00,
2013-02-05 09:11:00,53.0,27.0,30.17,SE,126,0.0,0.0,36,0.00,,,0.00,,2013-02-05 17:11:00,
2013-02-05 09:21:00,54.0,26.0,30.17,SE,126,0.0,0.0,34,0.00,,,0.00,,2013-02-05 17:21:00,
2013-02-05 09:32:00,54.0,26.0,30.17,SE,126,0.0,0.0,34,0.00,,,0.00,,2013-02-05 17:32:00,
2013-02-05 09:41:00,54.0,26.0,30.17,SE,126,0.0,0.0,34,0.00,,,0.00,,2013-02-05 17:41:00,
2013-02-05 09:52:00,55.0,26.0,30.17,SE,126,0.0,1.0,32,0.00,,,0.00,,2013-02-05 17:52:00,
2013-02-05 10:01:00,56.0,27.0,30.17,SE,126,0.0,3.0,33,0.00,,,0.00,,2013-02-05 18:01:00,
2013-02-05 10:11:00,56.0,27.0,30.17,SE,126,0.0,3.0,33,0.00,,,0.00,,2013-02-05 18:11:00,
2013-02-05 10:21:00,57.0,27.0,30.16,SE,126,0.0,4.0,32,0.00,,,0.00,,2013-02-05 18:21:00,
2013-02-05 10:31:00,58.0,27.0,30.16,SE,126,1.0,6.0,30,0.00,,,0.00,,2013-02-05 18:31:00,
2013-02-05 10:42:00,58.0,27.0,30.16,SE,126,1.0,6.0,30,0.00,,,0.00,,2013-02-05 18:42:00,
2013-02-05 10:52:00,58.0,28.0,30.16,SE,126,1.0,5.0,31,0.00,,,0.00,,2013-02-05 18:52:00,
2013-02-05 11:01:00,59.0,28.0,30.15,SE,125,2.0,5.0,30,0.00,,,0.00,,2013-02-05 19:01:00,
2013-02-05 11:11:00,59.0,28.0,30.15,SE,125,2.0,5.0,30,0.00,,,0.00,,2013-02-05 19:11:00,
2013-02-05 11:21:00,60.0,28.0,30.14,SE,125,0.0,3.0,30,0.00,,,0.00,,2013-02-05 19:21:00,
2013-02-05 11:31:00,60.0,28.0,30.14,SE,125,0.0,5.0,29,0.00,,,0.00,,2013-02-05 19:31:00,
2013-02-05 11:42:00,60.0,28.0,30.14,SE,125,0.0,5.0,29,0.00,,,0.00,,2013-02-05 19:42:00,
2013-02-05 11:52:00,60.0,26.0,30.13,SE,125,0.0,2.0,27,0.00,,,0.00,,2013-02-05 19:52:00,
2013-02-05 12:01:00,61.0,26.0,30.12,ESE,123,0.0,7.0,26,0.00,,,0.00,,2013-02-05 20:01:00,
2013-02-05 12:11:00,61.0,26.0,30.12,ESE,123,0.0,7.0,26,0.00,,,0.00,,2013-02-05 20:11:00,
2013-02-05 12:21:00,62.0,27.0,30.11,ESE,123,0.0,5.0,26,0.00,,,0.00,,2013-02-05 20:21:00,
2013-02-05 12:31:00,62.0,27.0,30.11,ESE,123,0.0,5.0,26,0.00,,,0.00,,2013-02-05 20:31:00,
2013-02-05 12:41:00,62.0,27.0,30.11,ESE,123,0.0,5.0,26,0.00,,,0.00,,2013-02-05 20:41:00,
2013-02-05 12:52:00,62.0,26.0,30.09,ESE,123,1.0,7.0,25,0.00,,,0.00,,2013-02-05 20:52:00,
2013-02-05 13:01:00,62.0,26.0,30.07,ESE,113,0.0,4.0,25,0.00,,,0.00,,2013-02-05 21:01:00,
2013-02-05 13:11:00,62.0,26.0,30.07,ESE,113,0.0,4.0,25,0.00,,,0.00,,2013-02-05 21:11:00,
2013-02-05 13:21:00,64.0,27.0,30.07,ESE,107,3.0,8.0,25,0.00,,,0.00,,2013-02-05 21:21:00,
2013-02-05 13:31:00,64.0,26.0,30.06,ESE,107,1.0,7.0,24,0.00,,,0.00,,2013-02-05 21:31:00,
2013-02-05 13:41:00,64.0,26.0,30.06,ESE,107,1.0,7.0,24,0.00,,,0.00,,2013-02-05 21:41:00,
2013-02-05 13:52:00,64.0,27.0,30.06,ESE,107,0.0,7.0,25,0.00,,,0.00,,2013-02-05 21:52:00,
2013-02-05 14:01:00,64.0,27.0,30.06,ESE,107,0.0,7.0,25,0.00,,,0.00,,2013-02-05 22:01:00,
2013-02-05 14:11:00,64.0,27.0,30.06,ESE,107,0.0,7.0,25,0.00,,,0.00,,2013-02-05 22:11:00,
2013-02-05 14:21:00,64.0,26.0,30.04,East,96,0.0,7.0,24,0.00,,,0.00,,2013-02-05 22:21:00,
2013-02-05 14:31:00,65.0,26.0,30.04,East,92,3.0,8.0,23,0.00,,,0.00,,2013-02-05 22:31:00,
2013-02-05 14:42:00,65.0,26.0,30.04,East,92,3.0,8.0,23,0.00,,,0.00,,2013-02-05 22:42:00,
2013-02-05 14:52:00,65.0,27.0,30.03,East,89,1.0,7.0,24,0.00,,,0.00,,2013-02-05 22:52:00,
2013-02-05 15:01:00,65.0,26.0,30.03,ENE,61,6.0,9.0,23,0.00,,,0.00,,2013-02-05 23:01:00,
2013-02-05 15:11:00,65.0,26.0,30.03,ENE,61,6.0,9.0,23,0.00,,,0.00,,2013-02-05 23:11:00,
2013-02-05 15:21:00,65.0,26.0,30.03,ENE,61,6.0,9.0,23,0.00,,,0.00,,2013-02-05 23:21:00,
2013-02-05 15:31:00,65.0,27.0,30.02,ENE,62,3.0,7.0,24,0.00,,,0.00,,2013-02-05 23:31:00,
2013-02-05 15:41:00,65.0,27.0,30.02,ENE,62,3.0,7.0,24,0.00,,,0.00,,2013-02-05 23:41:00,
2013-02-05 15:52:00,65.0,26.0,30.01,ENE,61,3.0,7.0,23,0.00,,,0.00,,2013-02-05 23:52:00,
2013-02-05 16:01:00,65.0,27.0,30.01,ENE,59,5.0,9.0,24,0.00,,,0.00,,2013-02-06 00:01:00,
2013-02-05 16:11:00,65.0,27.0,30.01,ENE,59,5.0,9.0,24,0.00,,,0.00,,2013-02-06 00:11:00,
2013-02-05 16:21:00,65.0,27.0,30.01,ENE,59,5.0,9.0,24,0.00,,,0.00,,2013-02-06 00:21:00,
2013-02-05 16:31:00,64.0,27.0,30.00,ENE,59,0.0,6.0,25,0.00,,,0.00,,2013-02-06 00:31:00,
2013-02-05 16:41:00,64.0,27.0,30.00,ENE,59,0.0,6.0,25,0.00,,,0.00,,2013-02-06 00:41:00,
2013-02-05 16:52:00,64.0,27.0,30.00,ENE,59,2.0,4.0,25,0.00,,,0.00,,2013-02-06 00:52:00,
2013-02-05 17:01:00,64.0,28.0,30.00,ENE,59,1.0,5.0,26,0.00,,,0.00,,2013-02-06 01:01:00,
2013-02-05 17:11:00,64.0,28.0,30.00,ENE,59,1.0,5.0,26,0.00,,,0.00,,2013-02-06 01:11:00,
2013-02-05 17:21:00,63.0,28.0,29.99,ENE,59,0.0,2.0,26,0.00,,,0.00,,2013-02-06 01:21:00,
2013-02-05 17:31:00,62.0,28.0,30.00,ENE,59,0.0,0.0,27,0.00,,,0.00,,2013-02-06 01:31:00,
2013-02-05 17:41:00,62.0,28.0,30.00,ENE,59,0.0,0.0,27,0.00,,,0.00,,2013-02-06 01:41:00,
2013-02-05 17:52:00,62.0,29.0,30.00,ENE,59,0.0,0.0,28,0.00,,,0.00,,2013-02-06 01:52:00,
2013-02-05 18:01:00,61.0,28.0,29.99,ENE,59,0.0,0.0,28,0.00,,,0.00,,2013-02-06 02:01:00,
2013-02-05 18:11:00,61.0,28.0,29.99,ENE,59,0.0,0.0,28,0.00,,,0.00,,2013-02-06 02:11:00,
2013-02-05 18:21:00,60.0,29.0,30.00,ENE,59,0.0,0.0,31,0.00,,,0.00,,2013-02-06 02:21:00,
2013-02-05 18:31:00,58.0,29.0,30.00,ENE,59,0.0,0.0,33,0.00,,,0.00,,2013-02-06 02:31:00,
2013-02-05 18:41:00,58.0,29.0,30.00,ENE,59,0.0,0.0,33,0.00,,,0.00,,2013-02-06 02:41:00,
2013-02-05 18:52:00,57.0,30.0,30.01,ENE,59,0.0,0.0,35,0.00,,,0.00,,2013-02-06 02:52:00,
2013-02-05 19:02:00,56.0,30.0,30.00,ENE,59,0.0,0.0,37,0.00,,,0.00,,2013-02-06 03:02:00,
2013-02-05 19:11:00,56.0,30.0,30.00,ENE,59,0.0,0.0,37,0.00,,,0.00,,2013-02-06 03:11:00,
2013-02-05 19:21:00,55.0,31.0,30.00,ENE,59,0.0,4.0,39,0.00,,,0.00,,2013-02-06 03:21:00,
2013-02-05 19:31:00,55.0,30.0,30.00,ENE,59,0.0,2.0,38,0.00,,,0.00,,2013-02-06 03:31:00,
2013-02-05 19:42:00,55.0,30.0,30.00,ENE,59,0.0,2.0,38,0.00,,,0.00,,2013-02-06 03:42:00,
2013-02-05 19:52:00,55.0,30.0,29.99,ENE,59,0.0,3.0,38,0.00,,,0.00,,2013-02-06 03:52:00,
2013-02-05 20:01:00,55.0,29.0,29.99,ENE,59,0.0,2.0,37,0.00,,,0.00,,2013-02-06 04:01:00,
2013-02-05 20:11:00,55.0,29.0,29.99,ENE,59,0.0,2.0,37,0.00,,,0.00,,2013-02-06 04:11:00,
2013-02-05 20:21:00,55.0,31.0,29.99,ENE,59,0.0,0.0,39,0.00,,,0.00,,2013-02-06 04:21:00,
2013-02-05 20:31:00,54.0,30.0,29.99,ENE,59,0.0,0.0,40,0.00,,,0.00,,2013-02-06 04:31:00,
2013-02-05 20:41:00,54.0,30.0,29.99,ENE,59,0.0,0.0,40,0.00,,,0.00,,2013-02-06 04:41:00,
2013-02-05 20:52:00,54.0,30.0,29.99,ENE,59,0.0,0.0,40,0.00,,,0.00,,2013-02-06 04:52:00,
2013-02-05 21:01:00,53.0,31.0,29.99,ENE,59,0.0,0.0,43,0.00,,,0.00,,2013-02-06 05:01:00,
2013-02-05 21:11:00,53.0,31.0,29.99,ENE,59,0.0,0.0,43,0.00,,,0.00,,2013-02-06 05:11:00,
2013-02-05 21:22:00,53.0,32.0,29.99,ENE,59,0.0,0.0,44,0.00,,,0.00,,2013-02-06 05:22:00,
2013-02-05 21:31:00,53.0,31.0,29.98,ENE,59,0.0,0.0,42,0.00,,,0.00,,2013-02-06 05:31:00,
2013-02-05 21:41:00,53.0,31.0,29.98,ENE,59,0.0,0.0,42,0.00,,,0.00,,2013-02-06 05:41:00,
2013-02-05 21:53:00,53.0,32.0,29.98,ENE,59,0.0,3.0,45,0.00,,,0.00,,2013-02-06 05:53:00,
2013-02-05 22:01:00,53.0,32.0,29.98,ENE,59,0.0,3.0,45,0.00,,,0.00,,2013-02-06 06:01:00,
2013-02-05 22:11:00,53.0,32.0,29.98,ENE,59,0.0,3.0,45,0.00,,,0.00,,2013-02-06 06:11:00,
2013-02-05 22:21:00,53.0,31.0,29.98,ENE,59,0.0,4.0,43,0.00,,,0.00,,2013-02-06 06:21:00,
2013-02-05 22:31:00,53.0,31.0,29.98,ENE,59,0.0,3.0,43,0.00,,,0.00,,2013-02-06 06:31:00,
2013-02-05 22:42:00,53.0,31.0,29.98,ENE,59,0.0,3.0,43,0.00,,,0.00,,2013-02-06 06:42:00,
2013-02-05 22:52:00,53.0,30.0,29.98,ENE,59,0.0,0.0,41,0.00,,,0.00,,2013-02-06 06:52:00,
2013-02-05 23:01:00,54.0,31.0,29.98,ENE,59,0.0,2.0,41,0.00,,,0.00,,2013-02-06 07:01:00,
2013-02-05 23:11:00,54.0,31.0,29.98,ENE,59,0.0,2.0,41,0.00,,,0.00,,2013-02-06 07:11:00,
2013-02-05 23:21:00,54.0,29.0,29.97,ESE,109,3.0,9.0,38,0.00,,,0.00,,2013-02-06 07:21:00,
2013-02-05 23:32:00,55.0,29.0,29.98,ESE,108,0.0,0.0,37,0.00,,,0.00,,2013-02-06 07:32:00,
2013-02-05 23:41:00,55.0,29.0,29.98,ESE,108,0.0,0.0,37,0.00,,,0.00,,2013-02-06 07:41:00,
2013-02-05 23:52:00,54.0,29.0,29.97,NNW,331,3.0,8.0,38,0.00,,,0.00,,2013-02-06 07:52:00,